Stations météo

réclame
Mon MeteoGroup
Rostherne No 2, Grande-Bretagne (3351): Température de l'air & dewpoint: 13.07.2018 20:00:00 - 19.07.2018 20:00:00 (BST)Rostherne No 2, Grande-Bretagne (3351): Vitesse du vent: 13.07.2018 20:00:00 - 19.07.2018 20:00:00 (BST)Rostherne No 2, Grande-Bretagne (3351): Direction du vent: 13.07.2018 20:00:00 - 19.07.2018 20:00:00 (BST)Rostherne No 2, Grande-Bretagne (3351): reduced air pressure: 13.07.2018 20:00:00 - 19.07.2018 20:00:00 (BST)Rostherne No 2, Grande-Bretagne (3351): visibility: 13.07.2018 20:00:00 - 19.07.2018 20:00:00 (BST)Rostherne No 2, Grande-Bretagne (3351): Ensoleillement: 13.07.2018 20:00:00 - 19.07.2018 20:00:00 (BST)Rostherne No 2, Grande-Bretagne (3351): Quantités de précipitations: 13.07.2018 20:00:00 - 19.07.2018 20:00:00 (BST)
Date & Time tt [°C] td [°C] ff [km/h] ff [knt] dd ppp [hPa] vv [km] sd [min] rr [mm]
19.07.2018 20:00:00 - - - - - - - - -
19.07.2018 19:00:00 22,0 8,4 16 9 NNW 1017,6 45 60 0,0
19.07.2018 18:00:00 22,7 9,3 15 8 NNW 1017,7 18 60 0,0
19.07.2018 17:00:00 23,9 10,2 15 8 N 1017,9 30 48 0,0
19.07.2018 16:00:00 24,0 10,1 13 7 NNW 1018,3 35 42 0,0
19.07.2018 15:00:00 22,6 10,3 13 7 N 1018,6 35 30 0,0
19.07.2018 14:00:00 23,2 11,1 11 6 WNW 1018,8 19 18 0,0
19.07.2018 13:00:00 21,6 11,3 11 6 NNW 1019,0 26 18 0,0
19.07.2018 12:00:00 22,4 12,2 15 8 W 1019,3 28 24 0,0
19.07.2018 11:00:00 20,9 12,0 5 3 NW 1019,5 35 36 0,0
19.07.2018 10:00:00 20,3 13,8 5 3 N 1019,6 25 60 0,0
19.07.2018 09:00:00 18,3 14,2 9 5 NNW 1019,7 28 60 0,0
19.07.2018 08:00:00 16,3 16,0 5 3 NW 1019,7 11 48 0,0
19.07.2018 07:00:00 12,4 12,3 4 2 SE 1019,8 10 0 0,0
19.07.2018 06:00:00 10,2 10,0 4 2 ESE 1019,8 7 0 0,0
19.07.2018 05:00:00 10,3 9,8 4 2 SSE 1019,7 6 0 0,0
19.07.2018 04:00:00 11,5 10,5 2 1 SE 1019,6 11 0 0,0
19.07.2018 03:00:00 13,1 11,8 8 4 NW 1019,4 15 0 0,0
19.07.2018 02:00:00 13,8 12,2 8 4 NW 1019,3 16 0 0,0
19.07.2018 01:00:00 15,1 12,7 5 3 NW 1019,2 20 - 0,0
19.07.2018 00:00:00 15,6 12,2 9 5 NW 1019,0 22 0 0,0
18.07.2018 23:00:00 16,5 12,3 9 5 NW 1018,8 28 0 0,0
18.07.2018 22:00:00 16,4 11,6 8 4 NW 1018,6 30 0 0,0
18.07.2018 21:00:00 19,3 12,1 9 5 NNW 1018,4 40 0 0,0
18.07.2018 20:00:00 20,7 11,6 5 3 NNW 1018,1 30 0 0,0
18.07.2018 19:00:00 21,7 12,0 5 3 N 1017,8 35 0 0,0
18.07.2018 18:00:00 21,9 11,8 9 5 NNW 1017,9 30 0 0,0
18.07.2018 17:00:00 20,7 11,2 9 5 NNW 1017,8 35 0 0,0
18.07.2018 16:00:00 22,8 10,9 4 2 SW 1017,7 35 0 0,0
18.07.2018 15:00:00 21,0 10,6 11 6 W 1017,7 30 0 0,0
18.07.2018 14:00:00 21,2 10,0 8 4 SW 1017,5 30 0 0,0
18.07.2018 13:00:00 20,9 12,2 9 5 SSW 1017,5 40 6 0,0
18.07.2018 12:00:00 20,7 12,7 8 4 WSW 1017,7 35 18 0,0
18.07.2018 11:00:00 20,0 12,8 9 5 SSW 1017,8 28 0 0,0
18.07.2018 10:00:00 18,4 12,2 9 5 SSW 1017,8 30 0 0,0
18.07.2018 09:00:00 17,3 11,2 5 3 SSE 1017,8 35 0 0,0
18.07.2018 08:00:00 15,3 11,8 4 2 SE 1017,6 29 0 0,0
18.07.2018 07:00:00 13,6 11,6 2 1 SE 1017,3 29 0 0,0
18.07.2018 06:00:00 11,8 11,2 4 2 ESE 1017,2 27 0 0,0
18.07.2018 05:00:00 10,5 9,9 4 2 SE 1017,0 22 0 0,0
18.07.2018 04:00:00 11,4 10,7 4 2 E 1016,9 22 0 0,0
18.07.2018 03:00:00 11,2 9,8 4 2 ESE 1017,0 30 0 0,0
18.07.2018 02:00:00 13,0 11,2 5 3 SSE 1016,9 28 0 0,0
18.07.2018 01:00:00 13,5 10,9 2 1 SSE 1016,8 30 - 0,0
18.07.2018 00:00:00 13,9 10,5 2 1 ESE 1016,9 40 0 0,0
17.07.2018 23:00:00 14,7 9,6 2 1 NE 1016,7 35 0 0,0
17.07.2018 22:00:00 15,4 9,4 4 2 NW 1016,6 30 0 0,0
17.07.2018 21:00:00 16,6 8,6 9 5 NNW 1016,3 45 0 0,0
17.07.2018 20:00:00 17,5 8,4 11 6 NNW 1015,9 45 0 0,0
17.07.2018 19:00:00 18,7 8,0 15 8 NW - - 18 0,0
17.07.2018 18:00:00 18,8 9,5 15 8 NW 1015,4 35 24 0,0
17.07.2018 17:00:00 19,4 10,4 16 9 WNW 1015,1 30 18 0,0
17.07.2018 16:00:00 18,3 10,9 16 9 NW 1015,0 35 30 0,0
17.07.2018 15:00:00 18,3 11,5 16 9 WNW 1015,1 50 18 0,0
17.07.2018 14:00:00 20,4 12,4 9 5 WNW 1015,1 35 36 0,0
17.07.2018 13:00:00 16,8 11,6 15 8 WNW 1015,4 35 0 0,0
17.07.2018 12:00:00 19,2 12,6 16 9 WNW 1015,1 30 6 0,0
17.07.2018 11:00:00 18,6 12,4 18 10 WNW 1015,0 35 12 0,0
17.07.2018 10:00:00 16,9 13,4 9 5 W 1014,9 24 12 0,0
17.07.2018 09:00:00 15,4 13,2 8 4 WSW 1014,8 23 36 0,0
17.07.2018 08:00:00 14,2 13,3 5 3 S 1014,7 15 18 0,0
17.07.2018 07:00:00 12,7 12,4 5 3 S 1014,5 14 6 0,0
17.07.2018 06:00:00 11,3 11,2 8 4 SSE 1014,1 9 0 0,0
17.07.2018 05:00:00 11,8 11,7 8 4 S 1013,9 3,2 0 0,0
17.07.2018 04:00:00 9,5 9,2 4 2 SW 1013,9 0,1 0 0,0
17.07.2018 03:00:00 10,9 10,6 2 1 S 1013,9 0,2 0 0,0
17.07.2018 02:00:00 12,2 11,7 4 2 NW 1014,0 5 0 0,0
17.07.2018 01:00:00 12,8 11,9 5 3 WNW 1014,1 8 - 0,0
17.07.2018 00:00:00 14,4 13,8 13 7 WNW 1014,1 14 0 0,0
16.07.2018 23:00:00 14,6 14,2 11 6 WNW 1013,7 9 0 0,0
16.07.2018 22:00:00 14,6 14,3 8 4 NW 1013,4 9 0 0,0
16.07.2018 21:00:00 15,1 14,5 15 8 WNW 1013,3 15 0 4,4
16.07.2018 20:00:00 16,2 15,5 15 8 NW 1012,7 8 0 0,6
16.07.2018 19:00:00 17,2 15,7 13 7 NNW 1011,7 8 0 0,2
16.07.2018 18:00:00 19,2 15,5 13 7 NNW 1011,3 28 0 0,0
16.07.2018 17:00:00 21,0 14,8 16 9 NW 1011,5 28 6 0,0
16.07.2018 16:00:00 22,0 15,1 13 7 NNW 1011,7 30 6 0,0
16.07.2018 15:00:00 22,7 15,5 9 5 NNW 1012,2 45 0 0,0
16.07.2018 14:00:00 21,2 14,5 5 3 N 1012,8 45 6 0,0
16.07.2018 13:00:00 22,2 16,0 5 3 N 1013,3 28 30 0,0
16.07.2018 12:00:00 18,9 15,2 13 7 NNW 1013,8 30 0 0,0
16.07.2018 11:00:00 18,0 14,7 15 8 NW 1013,8 35 0 0,0
16.07.2018 10:00:00 19,5 14,8 15 8 W 1013,5 16 6 0,0
16.07.2018 09:00:00 19,3 15,3 8 4 SW 1013,4 21 0 0,0
16.07.2018 08:00:00 18,3 15,0 5 3 SW 1013,5 16 0 0,0
16.07.2018 07:00:00 17,2 14,6 8 4 SW 1013,4 19 0 0,0
16.07.2018 06:00:00 15,8 14,1 4 2 SE 1013,5 15 0 0,0
16.07.2018 05:00:00 16,2 14,0 5 3 S 1013,5 17 0 0,0
16.07.2018 04:00:00 15,5 13,4 4 2 SE 1013,7 19 0 0,0
16.07.2018 03:00:00 16,0 14,0 4 2 S 1014,0 20 0 0,0
16.07.2018 02:00:00 16,4 13,8 4 2 SSW 1014,4 28 0 0,0
16.07.2018 01:00:00 16,6 14,6 4 2 SSW 1014,4 30 - 0,0
16.07.2018 00:00:00 17,0 13,4 4 2 S 1014,6 40 0 0,0
15.07.2018 23:00:00 19,0 13,9 5 3 WSW 1014,6 45 0 0,0
15.07.2018 22:00:00 19,5 13,7 8 4 WNW 1014,3 30 0 0,0
15.07.2018 21:00:00 21,2 13,8 9 5 NNW 1014,0 40 0 0,0
15.07.2018 20:00:00 22,0 13,3 13 7 NW 1013,9 45 0 0,0
15.07.2018 19:00:00 24,1 13,1 15 8 WNW 1013,6 40 12 0,0
15.07.2018 18:00:00 26,2 12,4 11 6 W 1013,8 40 54 0,0
15.07.2018 17:00:00 26,1 11,7 16 9 W 1014,0 50 18 0,0
15.07.2018 16:00:00 25,5 11,2 9 5 WSW 1014,3 35 30 0,0
15.07.2018 15:00:00 25,7 11,3 11 6 SW 1014,5 30 54 0,0
15.07.2018 14:00:00 25,2 11,8 13 7 SW 1014,9 40 60 0,0
15.07.2018 13:00:00 25,5 13,3 9 5 WSW 1015,4 35 24 0,0
15.07.2018 12:00:00 23,9 13,3 8 4 W 1015,6 18 24 0,0
15.07.2018 11:00:00 23,8 14,8 11 6 W 1015,9 29 36 0,0
15.07.2018 10:00:00 20,4 13,1 11 6 SW 1016,4 40 60 0,0
15.07.2018 09:00:00 19,1 13,9 11 6 S 1016,6 27 60 0,0
15.07.2018 08:00:00 16,9 13,6 9 5 S 1016,8 30 60 0,0
15.07.2018 07:00:00 14,8 14,0 5 3 SE 1016,7 17 60 0,0
15.07.2018 06:00:00 12,3 11,9 5 3 SE 1016,7 12 6 0,0
15.07.2018 05:00:00 11,6 11,3 8 4 SE 1016,9 13 0 0,0
15.07.2018 04:00:00 11,2 10,7 5 3 SE 1017,1 4,7 0 0,0
15.07.2018 03:00:00 12,3 12,0 2 1 SE 1017,2 9 0 0,0
15.07.2018 02:00:00 12,7 12,0 2 1 SSE 1017,3 8 0 0,0
15.07.2018 01:00:00 14,4 13,0 4 2 WSW 1017,6 19 - 0,0
15.07.2018 00:00:00 15,1 13,0 4 2 NW 1017,8 28 0 0,0
14.07.2018 23:00:00 17,0 13,1 4 2 NW 1017,9 30 0 0,0
14.07.2018 22:00:00 18,4 12,9 5 3 NW 1017,5 40 0 0,0
14.07.2018 21:00:00 21,5 13,2 9 5 NNW 1016,9 45 48 0,0
14.07.2018 20:00:00 23,3 13,3 16 9 NW 1016,8 29 60 0,0
14.07.2018 19:00:00 26,3 12,5 15 8 W 1016,5 40 60 0,0
14.07.2018 18:00:00 26,5 10,9 9 5 SSW 1016,9 25 54 0,0
14.07.2018 17:00:00 26,5 11,4 8 4 W 1017,3 35 42 0,0
14.07.2018 16:00:00 26,6 11,7 5 3 S 1017,8 24 48 0,0
14.07.2018 15:00:00 25,0 11,8 8 4 SW 1018,5 25 48 0,0
14.07.2018 14:00:00 25,1 12,3 15 8 SSW 1019,1 24 54 0,0
14.07.2018 13:00:00 24,1 11,9 5 3 SW 1019,5 30 60 0,0
14.07.2018 12:00:00 22,5 11,0 8 4 SSE 1020,0 29 60 0,0
14.07.2018 11:00:00 21,6 11,2 5 3 SSW 1020,4 35 60 0,0
14.07.2018 10:00:00 20,4 12,0 5 3 SW 1020,5 30 60 0,0
14.07.2018 09:00:00 18,9 11,8 5 3 NNW 1021,0 28 60 0,0
14.07.2018 08:00:00 17,4 11,9 5 3 NW 1021,2 26 60 0,0
14.07.2018 07:00:00 16,4 13,2 2 1 NNE 1020,9 30 30 0,0
14.07.2018 06:00:00 15,2 13,1 4 2 NNW 1021,1 30 0 0,0
14.07.2018 05:00:00 14,2 13,6 0 0 N 1021,1 23 0 0,0
14.07.2018 04:00:00 13,5 12,0 2 1 W 1021,2 21 0 0,0
14.07.2018 03:00:00 15,9 13,4 2 1 NW 1021,4 35 0 0,0
14.07.2018 02:00:00 16,2 13,5 8 4 NW 1021,4 25 0 0,0
14.07.2018 01:00:00 16,5 14,7 5 3 NW 1021,7 13 - 0,0
14.07.2018 00:00:00 16,5 14,8 5 3 NW 1021,8 11 0 0,0
13.07.2018 23:00:00 16,6 15,2 9 5 NW 1021,6 7 0 0,0
13.07.2018 22:00:00 17,4 15,8 9 5 NW 1021,6 7 0 0,0
13.07.2018 21:00:00 18,1 16,5 8 4 NW 1021,0 5 0 0,0
13.07.2018 20:00:00 18,8 16,8 9 5 NW 1020,9 5 0 0,0

tt = Température de l'air
td = dewpoint
ff = Vitesse du vent
dd = Direction du vent
ppp = reduced air pressure
vv = visibility
sd = Ensoleillement
rr = Quantités de précipitations

stations d'obs. à proximité